Printer-friendly version

IAU Minor Planet Center

Minor Planet Center

MPEC 2004-C36 : 2000 WO183, 2001 FT185, 2002 CT154

The following Minor Planet Electronic Circular may be linked-to from your own Web pages, but must not otherwise be redistributed electronically.


Read MPEC 2004-C35 Read MPEC 2004-C37


M.P.E.C. 2004-C36                                Issued 2004 Feb.  9, 18:20 UT

     The Minor Planet Electronic Circulars contain information on unusual
         minor planets and routine data on comets.  They are published
   on behalf of Commission 20 of the International Astronomical Union by the
          Minor Planet Center, Smithsonian Astrophysical Observatory,
                          Cambridge, MA 02138, U.S.A.

         Supported in part by the Steven and Michele Kirsch Foundation
             Prepared using the Tamkin Foundation Computer Network

                              MPC@CFA.HARVARD.EDU
          URL http://cfa-www.harvard.edu/iau/mpc.html  ISSN 1523-6714

                      2000 WO183, 2001 FT185, 2002 CT154

                 Revision to MPEC 2000-Y05, 2001-N01, 2002-D24

Additional Observations:
     K00WI3O  C2003 11 20.33877 04 29 02.39 +19 47 51.5          23.5 R EC036695
     K00WI3O  C2003 11 20.41679 04 29 01.97 +19 47 50.4                 EC036695
     K00WI3O  C2003 11 23.28761 04 28 47.28 +19 47 17.9          24.5 R EC036695
     K00WI3O  C2003 11 23.33686 04 28 47.01 +19 47 17.6                 EC036695
     K00WI3O  C2003 11 23.39210 04 28 46.73 +19 47 16.9                 EC036695
     K01FI5T  C2002 04 07.13772 13 15 24.69 -09 35 18.6          22.4 R EC036807
     K01FI5T  C2002 04 07.19779 13 15 24.41 -09 35 16.9                 EC036807
     K01FI5T  C2002 04 08.17414 13 15 19.94 -09 34 55.1                 EC036807
     K01FI5T  C2003 05 30.01370 13 15 58.69 -10 11 06.4                 EC036807
     K01FI5T  C2003 05 30.10538 13 15 58.40 -10 11 05.2                 EC036807
     K02CF4T  C2001 03 25.18918 10 58 08.00 +06 52 41.7          24.6 R EC036695
     K02CF4T  C2003 03 30.20052 11 08 44.40 +05 58 07.9          22.4 R EC036695
     K02CF4T  C2003 03 30.29729 11 08 43.98 +05 58 10.0                 EC036695

Observer details:
695 Kitt Peak.  Observers L. H. Wasserman, E. I. Chiang, J. R. Lovering,
    M. W. Buie, S. D. Kern.  Measurers M. W. Buie, R. L. Millis,
    L. H. Wasserman, E. I. Chiang, K. B. Clancy, D. E. Trilling, L. E.
    Hutchison, J. F. Kane.  4-m reflector + CCD.
807 Cerro Tololo.  Observers M. W. Buie, A. B. Jordan, J. L. Elliot,
    K. J. Meech.  Measurers J. F. Kane, M. W. Buie.  4-m reflector + CCD.

Orbital elements:
2000 WO183
Epoch 2004 July 14.0 TT = JDT 2453200.5                 MPC
M  47.02190              (2000.0)            P               Q
n   0.00337329     Peri.  254.64834     +0.96435383     -0.26206236
a  44.0318616      Node   120.53185     +0.25617239     +0.88984034
e   0.0787132      Incl.    2.44027     +0.06631285     +0.37350701
P 292              H    7.5           G   0.15           U   6
Residuals in seconds of arc
K00BQ  809  0.4-  0.1+    K00BR  809  0.4+  0.0     K03BK  695  0.1-  0.3-
K00BQ  809  0.4-  0.0     K00BR  809  0.1-  0.0     K03BN  695  0.0   0.1-
K00BQ  809  0.1-  0.3-    K011U  809  0.2-  0.1-    K03BN  695  0.2-  0.2+
K00BR  809  0.1-  0.2-    K011V  809  0.0   0.1+    K03BN  695  0.1-  0.1+
K00BR  809  0.2-  0.3-    K011V  809  0.1-  0.4+
K00BR  809  0.4+  0.1+    K03BK  695  0.1+  0.0

2001 FT185
Epoch 2004 July 14.0 TT = JDT 2453200.5                 MPC
M  33.09547              (2000.0)            P               Q
n   0.00301565     Peri.  146.53758     -0.94886394     -0.30064893
a  47.4477204      Node    16.79151     +0.16243229     -0.72645529
e   0.1100058      Incl.   19.46511     +0.27068983     -0.61795869
P 327              H    7.8           G   0.15           U   5
Residuals in seconds of arc
K013Q  695  0.0   0.1-    K0168  304  0.5+  0.5-    K0248  807  0.2+  0.1+
K013Q  695  0.0   0.1+    K0169  304  0.1+  0.4-    K035U  807  0.0   0.0
K015M  807  0.5-  0.4+    K0247  807  0.1+  0.0     K035U  807  0.3-  0.1-
K015M  807  0.4-  0.4+    K0247  807  0.1+  0.4+

2002 CT154
Epoch 2004 July 14.0 TT = JDT 2453200.5                 MPC
M  17.31818              (2000.0)            P               Q
n   0.00304210     Peri.  346.75825     -0.83127730     -0.55543773
a  47.1723021      Node   159.45620     +0.51543629     -0.78479862
e   0.1189834      Incl.    3.53049     +0.20809489     -0.27491826
P 324              H    7.2           G   0.15           U   5
Residuals in seconds of arc
K013P  695  0.1-  0.3-    K023E  696  0.6+  0.4-    K025C  950  0.1-  0.1+
K0226  695  0.3-  0.1-    K023K  695  0.2-  0.2-    K025C  950  0.1-  0.1+
K0226  695  0.3-  0.1+    K023K  695  0.1-  0.3+    K033U  695  0.0   0.0
K0227  695  0.1-  0.0     K025B  950  0.6+  0.0     K033U  695  0.2-  0.4-
K023E  696  0.2+  0.1-    K025B  950  0.0   0.1+
K023E  696  0.5+  0.1+    K025B  950  0.5-  0.6+

Ephemerides:
2000 WO183               a,e,i = 44.03, 0.08, 2                  q = 40.566
Date    TT    R. A. (2000) Decl.     Delta      r     Elong.  Phase     V
2004 02 05    04 23.86   +19 38.3   41.422   41.801   112.0     1.3    23.9
2004 02 15    04 23.71   +19 38.5   41.589   41.803   101.8     1.3    23.9
2004 02 25    04 23.73   +19 39.1   41.763   41.804    91.7     1.4    23.9
2004 03 06    04 23.92   +19 40.1   41.937   41.806    81.8     1.3    23.9
2004 03 16    04 24.29   +19 41.4   42.107   41.808    71.9     1.3    23.9
2004 03 26    04 24.80   +19 43.1   42.267   41.809    62.1     1.2    23.9
2004 04 05    04 25.47   +19 45.1   42.414   41.811    52.4     1.1    23.9
2004 04 15    04 26.26   +19 47.3   42.544   41.812    42.7     0.9    23.9
2004 04 25    04 27.17   +19 49.7   42.652   41.814    33.2     0.8    23.9

2001 FT185               a,e,i = 47.45, 0.11, 19                 q = 42.228
Date    TT    R. A. (2000) Decl.     Delta      r     Elong.  Phase     V
2004 02 05    13 27.08   -11 35.5   42.880   43.244   111.0     1.2    24.3
2004 02 15    13 26.80   -11 35.1   42.726   43.245   121.2     1.1    24.3
2004 02 25    13 26.39   -11 34.0   42.587   43.247   131.4     1.0    24.3
2004 03 06    13 25.86   -11 32.1   42.468   43.249   141.5     0.8    24.3
2004 03 16    13 25.23   -11 29.5   42.373   43.251   151.6     0.6    24.2
2004 03 26    13 24.53   -11 26.5   42.304   43.253   161.7     0.4    24.2
2004 04 05    13 23.78   -11 23.0   42.265   43.254   171.5     0.2    24.2
2004 04 15    13 23.02   -11 19.3   42.254   43.256   176.9     0.1    24.1
2004 04 25    13 22.26   -11 15.6   42.274   43.258   167.9     0.3    24.2
2004 05 05    13 21.54   -11 11.9   42.322   43.260   158.1     0.5    24.2
2004 05 15    13 20.87   -11 08.5   42.398   43.262   148.3     0.7    24.2
2004 05 25    13 20.29   -11 05.5   42.499   43.263   138.6     0.9    24.3
2004 06 04    13 19.81   -11 03.0   42.621   43.265   128.9     1.0    24.3
2004 06 14    13 19.45   -11 01.1   42.762   43.267   119.2     1.2    24.3
2004 06 24    13 19.22   -10 59.9   42.917   43.269   109.6     1.3    24.3
2004 07 04    13 19.12   -10 59.5   43.081   43.271   100.1     1.3    24.3
2004 07 14    13 19.17   -11 00.0   43.250   43.272    90.6     1.3    24.3
2004 07 24    13 19.36   -11 01.3   43.420   43.274    81.1     1.3    24.4
2004 08 03    13 19.69   -11 03.4   43.585   43.276    71.6     1.3    24.4
2004 08 13    13 20.15   -11 06.3   43.742   43.278    62.2     1.2    24.4
2004 08 23    13 20.73   -11 10.0   43.885   43.280    52.7     1.1    24.4
2004 09 02    13 21.42   -11 14.4   44.011   43.282    43.3     0.9    24.3
2004 09 12    13 22.20   -11 19.4   44.116   43.283    33.8     0.7    24.3

2002 CT154               a,e,i = 47.17, 0.12, 4                  q = 41.560
Date    TT    R. A. (2000) Decl.     Delta      r     Elong.  Phase     V
2004 02 05    11 17.98   +05 04.6   41.036   41.867   147.1     0.7    23.5
2004 02 15    11 17.33   +05 08.9   40.955   41.868   157.4     0.5    23.5
2004 02 25    11 16.63   +05 13.6   40.902   41.869   167.7     0.3    23.4
2004 03 06    11 15.89   +05 18.4   40.879   41.870   177.9     0.1    23.4
2004 03 16    11 15.14   +05 23.3   40.886   41.872   171.9     0.2    23.4
2004 03 26    11 14.42   +05 28.0   40.924   41.873   161.8     0.4    23.5
2004 04 05    11 13.74   +05 32.4   40.990   41.874   151.7     0.6    23.5
2004 04 15    11 13.14   +05 36.3   41.083   41.875   141.7     0.9    23.5
2004 04 25    11 12.63   +05 39.5   41.198   41.876   131.8     1.0    23.5
2004 05 05    11 12.24   +05 42.1   41.334   41.877   122.0     1.2    23.6
2004 05 15    11 11.97   +05 43.8   41.485   41.878   112.3     1.3    23.6
2004 05 25    11 11.85   +05 44.6   41.646   41.879   102.6     1.4    23.6
2004 06 04    11 11.87   +05 44.5   41.814   41.880    93.0     1.4    23.6
2004 06 14    11 12.03   +05 43.5   41.984   41.882    83.5     1.4    23.6
2004 06 24    11 12.33   +05 41.6   42.151   41.883    74.1     1.3    23.6
2004 07 04    11 12.77   +05 38.8   42.309   41.884    64.6     1.3    23.6
2004 07 14    11 13.34   +05 35.3   42.456   41.885    55.3     1.1    23.6
2004 07 24    11 14.01   +05 31.0   42.587   41.886    45.9     1.0    23.6
2004 08 03    11 14.79   +05 26.2   42.698   41.887    36.5     0.8    23.6

Brian G. Marsden             (C) Copyright 2004 MPC           M.P.E.C. 2004-C36

Read MPEC 2004-C35 Read MPEC 2004-C37


Our Web policy. Index to the CBAT/MPC/ICQ pages.


Valid HTML 4.01!